TimeEST,TemperatureF,Dew PointF,Humidity,Sea Level PressureIn,VisibilityMPH,Wind Direction,Wind SpeedMPH,Gust SpeedMPH,PrecipitationIn,Events,Conditions,WindDirDegrees,DateUTC
12:52 AM,46.0,37.9,73,30.02,10.0,West,12.7,23.0,N/A,,Overcast,280,2012-12-09 05:52:00
1:52 AM,46.0,35.1,66,30.05,10.0,West,10.4,20.7,N/A,,Overcast,280,2012-12-09 06:52:00
2:52 AM,44.1,33.1,65,30.08,10.0,West,8.1,-,N/A,,Overcast,260,2012-12-09 07:52:00
3:52 AM,43.0,34.0,71,30.09,10.0,WSW,10.4,-,N/A,,Overcast,250,2012-12-09 08:52:00
4:23 AM,42.8,33.8,70,30.10,10.0,West,12.7,-,N/A,,Overcast,280,2012-12-09 09:23:00
4:52 AM,41.0,30.9,67,30.14,10.0,West,12.7,21.9,N/A,,Overcast,280,2012-12-09 09:52:00
5:52 AM,39.0,28.9,67,30.18,10.0,West,10.4,-,N/A,,Overcast,280,2012-12-09 10:52:00
6:03 AM,37.4,28.4,70,30.17,10.0,West,9.2,-,N/A,,Overcast,270,2012-12-09 11:03:00
6:52 AM,37.0,28.9,73,30.22,10.0,WSW,8.1,-,N/A,,Mostly Cloudy,250,2012-12-09 11:52:00
7:19 AM,37.4,28.4,70,30.22,10.0,West,3.5,-,N/A,,Mostly Cloudy,260,2012-12-09 12:19:00
7:52 AM,37.0,28.9,73,30.25,10.0,West,4.6,-,N/A,,Mostly Cloudy,270,2012-12-09 12:52:00
8:05 AM,37.4,28.4,70,30.24,10.0,West,4.6,-,N/A,,Partly Cloudy,270,2012-12-09 13:05:00
8:52 AM,37.0,28.0,70,30.27,10.0,West,4.6,-,N/A,,Clear,260,2012-12-09 13:52:00
9:52 AM,37.9,27.0,65,30.27,10.0,WSW,4.6,-,N/A,,Scattered Clouds,250,2012-12-09 14:52:00
10:52 AM,39.0,26.1,60,30.27,10.0,WSW,6.9,-,N/A,,Clear,250,2012-12-09 15:52:00
11:52 AM,41.0,26.1,55,30.25,10.0,Calm,Calm,-,N/A,,Clear,0,2012-12-09 16:52:00
1:52 PM,45.0,24.1,44,30.21,10.0,Calm,Calm,-,N/A,,Clear,0,2012-12-09 18:52:00
2:52 PM,44.1,26.1,49,30.22,10.0,Calm,Calm,-,N/A,,Clear,0,2012-12-09 19:52:00
3:52 PM,39.9,28.9,65,30.23,10.0,Calm,Calm,-,N/A,,Clear,0,2012-12-09 20:52:00
5:52 PM,42.1,24.1,49,30.24,10.0,East,6.9,-,N/A,,Overcast,100,2012-12-09 22:52:00
6:52 PM,42.1,24.1,49,30.21,10.0,East,10.4,18.4,N/A,,Overcast,80,2012-12-09 23:52:00
7:52 PM,41.0,23.0,49,30.20,10.0,East,10.4,19.6,N/A,,Overcast,90,2012-12-10 00:52:00
8:52 PM,41.0,24.1,51,30.17,10.0,East,18.4,28.8,N/A,,Overcast,100,2012-12-10 01:52:00
9:52 PM,37.9,28.9,70,30.15,8.0,ESE,20.7,25.3,0.00,Rain,Light Rain,110,2012-12-10 02:52:00
10:30 PM,37.4,30.2,75,30.12,6.0,East,11.5,16.1,0.03,Rain,Light Rain,90,2012-12-10 03:30:00
10:52 PM,37.0,32.0,82,30.11,6.0,East,13.8,21.9,0.06,Rain,Light Rain,90,2012-12-10 03:52:00
11:06 PM,37.4,32.0,81,30.09,8.0,East,18.4,27.6,0.01,Rain,Light Rain,100,2012-12-10 04:06:00
11:52 PM,39.0,33.1,79,30.08,8.0,East,13.8,25.3,0.02,Rain,Light Rain,90,2012-12-10 04:52:00